User: anonymous   Login
Location: Asheville, NC
(35.6000°N, 82.5500°W)
Time: 14:56:15
(UTC-05:00)
Language:

CUBESAT XI-V - Orbit

View from above orbital plane
View from above orbital plane
View from above satellite
View from above satellite

Ground track
Ground track

The orbit data is extracted from the following two-line orbital elements,

1 28895U 05043F   18016.90698931 +.00000121 +00000-0 +32111-4 0  9991
2 28895 097.8862 174.6876 0016840 183.2559 176.8537 14.63498495651513
Epoch (UTC): 16 January 2018 21:46:03
Eccentricity: 0.0016840
inclination: 97.8862°
perigee height: 670 km
apogee height: 694 km
right ascension of ascending node: 174.6876°
argument of perigee: 183.2559°
revolutions per day: 14.63498495
mean anomaly at epoch: 176.8537°
orbit number at epoch: 65151

The dashed part of the orbit path shows where the satellite is in the earth's shadow,  

DLR